Wind_Speed
8 2 6 9 8 5 5 10 16 10 11 18 27 29 24 20 35 44 49 35 41 29 37 37 34 40 42 43 46 49 51 50 48 46 47 47 47 51 50 47 51 51 45 44
13 13 14 14 7 17 21 20 27 30 29 31 33 31 23 30 41 43 46 47 43 32 28 27 44 52 47 49 52 52 52 51 48 48 48 47 47 48 50 50 48 42 42 46
2 13 18 14 13 9 18 21 26 27 17 20 27 21 27 36 36 40 40 41 41 31 28 41 53 56 55 58 52 52 52 50 49 49 50 49 53 51 49 37 46 55 51 50
1 17 14 9 15 16 14 19 21 21 23 10 8 10 31 38 39 35 44 42 40 35 31 49 42 49 48 51 53 53 54 54 55 55 56 54 51 45 42 49 52 58 54 51
11 14 13 18 17 20 21 25 21 14 6 14 9 21 32 34 40 43 40 37 36 45 40 51 46 44 49 49 48 50 51 53 55 55 53 54 50 54 54 57 57 55 51 55
7 14 16 19 15 20 21 28 30 21 14 5 11 14 27 35 37 35 36 36 41 51 49 43 36 48 57 52 48 49 51 51 51 52 48 53 52 63 60 56 58 59 57 54
10 14 15 19 29 16 26 29 31 25 10 16 17 27 30 32 38 42 46 47 48 42 46 46 50 53 53 50 50 50 49 49 50 52 52 56 60 63 65 66 66 66 65 66
14 19 18 24 22 24 33 31 23 21 27 18 19 26 28 34 39 44 41 39 43 44 51 49 46 48 50 48 48 49 50 51 51 53 55 58 61 63 66 68 69 70 71 66
16 22 27 25 30 28 31 22 20 32 31 24 17 25 36 38 38 42 47 51 52 55 41 39 47 42 42 44 47 46 49 52 53 55 56 59 61 64 66 66 66 58 49 42
24 25 23 25 28 27 34 32 33 35 35 23 24 34 37 40 41 42 45 47 46 40 40 35 36 39 44 45 49 51 51 52 53 54 53 50 52 55 58 47 34 28 28 25
31 32 31 30 26 34 32 29 28 34 29 27 30 38 34 35 40 42 46 40 47 42 42 42 44 47 49 51 52 51 51 51 50 48 41 46 47 48 31 23 24 25 21 22
36 38 39 35 25 30 29 26 27 32 34 24 30 36 29 34 41 44 28 53 43 40 39 41 43 46 50 50 49 50 49 49 44 39 42 43 40 39 31 30 22 22 27 28
36 33 31 27 23 25 25 25 27 21 33 36 29 26 34 37 41 34 29 37 37 41 43 43 47 48 48 48 48 48 46 43 36 40 38 38 37 34 30 28 24 25 25 17
22 28 29 35 33 28 21 16 31 34 33 35 22 30 35 38 36 41 36 35 38 41 42 44 45 45 46 46 46 44 44 33 36 35 37 35 33 31 28 27 22 23 21 19
37 37 38 30 23 17 15 23 22 30 23 26 29 33 34 33 36 33 32 36 36 39 42 42 42 43 44 43 44 41 38 33 37 36 35 33 30 29 26 24 21 20 22 21
34 33 23 13 15 16 21 21 18 23 25 25 29 33 32 36 37 33 35 37 40 39 40 42 43 43 43 44 43 40 35 34 36 32 29 28 26 24 22 20 19 19 18 19
26 20 16 13 11 12 17 16 21 23 21 27 30 33 35 36 35 35 37 38 38 38 39 40 41 42 43 43 41 38 30 32 27 29 28 25 26 24 23 21 18 14 11 10
18 15 12 11 14 16 16 18 19 20 23 29 31 35 33 36 37 36 36 35 35 37 38 36 37 39 42 40 36 30 26 23 25 24 25 27 27 26 25 23 19 16 13 9
9 6 12 14 17 18 15 18 21 28 28 31 32 32 33 37 38 37 34 35 34 35 34 35 34 39 36 32 27 21 21 21 21 22 26 26 27 29 27 24 23 19 17 14
6 9 13 17 18 19 22 24 26 30 31 32 32 32 32 32 35 35 35 32 32 31 33 29 35 34 25 26 24 18 20 19 20 22 25 24 30 35 37 37 34 32 31 29
9 12 15 16 19 22 24 26 28 29 29 31 30 34 33 32 29 30 30 31 30 32 27 28 31 26 23 20 18 16 17 17 19 21 24 28 31 33 34 36 37 38 38 38
9 13 17 18 20 22 23 28 28 29 29 33 35 34 32 31 30 29 29 29 30 26 23 29 24 21 20 19 13 14 16 17 19 20 24 30 32 33 33 36 37 38 37 37
10 15 19 20 22 22 22 24 26 29 31 33 33 32 30 29 29 28 29 29 25 22 22 21 19 19 19 14 10 12 16 16 18 19 23 29 29 29 30 31 34 35 36 36
12 17 20 22 24 25 27 28 27 31 31 33 32 29 30 28 27 27 28 23 21 21 22 15 16 17 17 10 9 11 14 14 17 19 21 27 30 31 31 29 30 30 32 33
16 19 21 24 26 26 25 27 28 29 30 28 29 29 27 24 28 27 23 21 20 21 15 14 14 16 12 8 10 12 14 14 17 21 22 24 26 27 27 29 30 29 29 29
16 22 25 26 27 27 26 27 27 28 29 28 27 28 24 26 28 22 21 19 19 15 15 13 12 11 7 9 14 18 18 18 21 25 26 26 25 26 27 26 26 27 27 29
Wind_Direction
79 76 276 320 314 271 259 216 192 259 273 272 275 302 300 256 276 285 288 302 313 315 301 309 315 314 311 311 310 309 309 311 310 308 305 306 307 300 302 304 303 303 289 282
33 304 287 266 286 267 260 238 229 221 248 267 284 290 275 282 283 285 286 296 299 327 294 291 312 318 316 316 314 312 309 307 306 305 303 300 297 300 301 298 300 294 284 308
310 266 281 290 284 262 247 233 238 256 275 285 283 265 275 278 281 284 284 282 285 296 307 305 311 309 309 311 306 306 304 302 303 302 301 299 300 303 306 278 286 292 292 303
119 271 293 281 263 282 287 292 278 288 291 298 292 290 288 285 286 286 290 273 279 288 292 298 304 303 300 304 305 305 305 306 306 307 307 305 301 299 289 283 294 299 297 298
232 270 295 279 271 281 272 303 313 306 261 285 280 279 281 279 294 294 306 276 312 314 303 313 304 292 306 313 305 302 302 304 304 304 306 305 300 300 295 293 297 298 295 294
271 281 270 271 267 264 272 314 314 306 265 302 293 245 278 285 283 284 291 293 297 308 306 307 302 308 315 314 313 311 309 306 303 303 302 288 297 298 296 295 298 294 286 285
259 301 292 299 300 272 300 309 307 304 298 266 261 269 268 281 286 287 288 290 290 298 306 311 312 313 311 312 310 310 308 306 304 302 299 294 295 297 297 296 293 288 285 286
258 281 292 301 304 308 310 317 309 314 330 319 239 272 282 277 285 287 287 287 311 307 308 308 309 308 307 307 308 308 308 305 304 304 303 301 299 297 295 292 288 286 284 288
274 276 282 278 289 307 307 307 301 301 312 296 282 275 283 281 283 281 312 310 318 316 311 308 301 306 309 309 308 309 307 308 306 305 305 304 304 302 300 299 296 295 293 289
291 298 287 292 289 281 287 297 300 302 305 285 291 292 290 287 290 289 294 299 303 304 320 315 312 315 315 315 314 314 313 312 311 309 309 309 311 311 314 304 303 308 291 285
297 296 292 294 298 292 294 293 293 295 292 308 299 300 299 300 294 293 299 300 325 323 318 319 319 320 319 318 318 318 316 314 314 313 314 318 319 328 328 319 319 297 295 280
295 294 298 300 297 288 289 295 301 306 302 295 291 302 288 323 313 301 303 313 314 312 315 319 319 319 319 319 319 318 318 319 317 316 319 319 326 334 329 297 310 313 305 288
294 294 307 315 303 297 291 284 286 281 285 289 283 305 307 305 308 322 304 311 314 317 320 323 321 320 320 321 320 319 322 321 318 320 319 328 336 330 333 329 309 299 301 290
291 312 310 315 305 301 299 275 273 274 285 288 282 309 310 307 308 314 299 330 317 317 317 315 317 321 320 321 321 324 324 318 320 323 331 332 331 333 331 322 307 288 278 278
295 299 301 305 302 301 286 270 281 299 297 313 313 310 306 310 316 316 320 316 312 314 316 317 322 322 321 322 325 324 326 323 321 333 333 334 333 336 332 327 320 303 289 283
293 302 307 312 297 298 290 286 286 303 323 315 311 307 305 310 314 320 318 319 320 324 321 323 325 323 323 326 327 327 328 324 327 335 341 346 347 346 343 340 335 327 318 305
300 309 314 311 315 311 302 312 300 307 316 310 306 308 313 310 311 316 323 320 325 319 322 325 323 324 327 328 328 329 327 323 337 339 351 358 357 357 352 345 335 323 321 322
288 305 311 322 321 317 318 314 304 317 313 308 314 320 320 314 316 320 322 324 320 323 323 324 326 328 329 330 332 335 331 347 351 1 9 12 7 5 5 1 360 3 356 352
271 301 312 324 324 322 326 311 309 315 321 320 321 323 322 320 319 322 325 321 323 322 325 327 329 331 333 340 344 342 356 7 10 18 22 16 21 23 23 27 34 39 41 47
314 319 313 319 323 320 320 321 318 320 321 320 322 321 319 318 319 322 321 323 322 325 326 329 333 333 339 344 344 356 16 21 28 31 30 34 45 42 41 48 52 58 61 68
323 321 315 323 322 320 321 319 320 319 322 321 322 321 323 322 321 321 324 324 326 324 328 334 336 342 344 352 353 17 28 37 41 44 46 53 54 51 53 59 61 63 68 74
320 313 316 326 324 322 322 322 324 322 323 324 325 327 329 326 326 327 327 325 324 328 331 336 339 353 352 356 9 33 46 49 55 55 58 61 61 62 62 61 67 70 72 77
322 315 326 334 329 328 329 327 323 323 324 324 326 328 327 330 329 332 327 326 329 333 333 338 347 352 351 6 27 50 56 58 65 66 65 64 66 65 65 65 70 75 78 80
331 323 331 332 334 333 325 325 322 322 326 327 330 330 330 331 332 329 327 332 336 336 337 348 349 354 355 20 45 58 63 68 75 76 74 75 73 71 71 75 78 79 83 85
321 319 326 334 333 329 324 323 327 328 331 332 334 335 335 334 332 331 333 336 336 338 347 356 349 354 7 42 61 67 76 78 87 87 85 84 78 74 74 75 80 85 83 80
323 320 327 334 332 328 327 327 331 332 333 337 337 337 334 331 334 334 340 340 338 345 355 357 354 2 41 64 78 89 87 84 97 97 95 91 82 80 79 82 83 82 81 82
Height
5898 5898 5897 5898 5898 5900 5902 5903 5901 5899 5895 5893 5893 5897 5894 5878 5870 5865 5862 5866 5866 5855 5856 5850 5845 5842 5836 5833 5829 5824 5819 5815 5812 5810 5808 5803 5800 5798 5792 5789 5786 5782 5778 5776
5897 5895 5896 5897 5899 5899 5896 5896 5893 5893 5891 5893 5894 5894 5884 5876 5868 5862 5860 5862 5860 5855 5850 5845 5840 5837 5831 5824 5820 5816 5813 5809 5805 5800 5797 5794 5790 5787 5782 5778 5773 5770 5766 5764
5897 5895 5895 5897 5895 5893 5891 5890 5890 5891 5892 5892 5887 5883 5872 5867 5863 5860 5856 5855 5853 5852 5848 5845 5838 5832 5827 5823 5815 5810 5807 5803 5798 5792 5789 5785 5781 5776 5771 5762 5761 5758 5754 5752
5896 5892 5894 5892 5889 5890 5889 5888 5887 5888 5886 5884 5881 5878 5866 5862 5860 5859 5853 5847 5845 5841 5840 5840 5834 5829 5824 5818 5810 5803 5796 5790 5784 5779 5775 5771 5768 5765 5759 5754 5747 5745 5742 5739
5893 5891 5892 5887 5887 5886 5885 5882 5883 5881 5878 5876 5875 5871 5862 5857 5858 5852 5842 5842 5836 5838 5836 5829 5827 5822 5818 5812 5805 5798 5792 5785 5779 5772 5766 5759 5752 5749 5746 5740 5734 5729 5725 5722
5890 5886 5885 5884 5883 5880 5880 5877 5875 5875 5873 5871 5866 5864 5859 5854 5850 5845 5841 5839 5836 5832 5826 5822 5816 5811 5806 5800 5794 5788 5782 5776 5770 5764 5759 5752 5738 5737 5731 5726 5720 5715 5710 5707
5885 5883 5881 5882 5879 5877 5875 5872 5868 5868 5869 5868 5862 5856 5852 5846 5842 5839 5835 5833 5830 5825 5819 5812 5806 5801 5797 5791 5786 5780 5774 5768 5761 5753 5747 5740 5731 5723 5715 5709 5703 5698 5691 5687
5882 5880 5878 5875 5874 5870 5868 5867 5862 5857 5858 5857 5857 5849 5844 5840 5835 5830 5828 5828 5823 5820 5814 5807 5801 5796 5791 5785 5779 5773 5767 5759 5751 5743 5735 5726 5718 5709 5701 5692 5685 5678 5673 5670
5882 5879 5877 5874 5871 5866 5863 5862 5860 5855 5854 5852 5849 5844 5839 5834 5831 5824 5820 5817 5814 5809 5806 5802 5798 5790 5784 5779 5774 5767 5758 5750 5740 5731 5722 5712 5703 5693 5682 5670 5661 5655 5652 5651
5876 5875 5875 5874 5871 5866 5859 5857 5852 5847 5845 5845 5844 5835 5832 5828 5823 5820 5817 5816 5811 5805 5796 5792 5788 5781 5775 5768 5762 5754 5745 5736 5727 5718 5708 5698 5689 5677 5665 5651 5645 5644 5642 5640
5870 5869 5868 5868 5866 5855 5854 5851 5849 5844 5840 5838 5834 5828 5824 5820 5816 5812 5807 5805 5802 5794 5787 5782 5775 5770 5764 5757 5750 5741 5733 5724 5714 5705 5696 5686 5677 5666 5653 5645 5644 5641 5637 5636
5863 5860 5857 5856 5857 5848 5845 5843 5840 5836 5833 5831 5828 5821 5817 5816 5811 5806 5799 5793 5794 5788 5782 5774 5769 5765 5757 5749 5741 5732 5723 5713 5703 5695 5687 5678 5668 5658 5650 5644 5639 5636 5632 5630
5856 5853 5849 5847 5848 5842 5840 5840 5832 5831 5826 5825 5820 5817 5816 5810 5805 5800 5791 5790 5785 5780 5775 5766 5761 5756 5748 5740 5732 5723 5713 5704 5696 5689 5680 5670 5660 5653 5645 5637 5632 5630 5627 5625
5849 5848 5844 5841 5837 5835 5834 5833 5823 5823 5820 5817 5814 5811 5806 5803 5800 5795 5792 5785 5780 5773 5768 5763 5756 5747 5739 5732 5723 5715 5707 5698 5691 5683 5673 5664 5655 5647 5640 5634 5629 5625 5622 5619
5845 5842 5838 5836 5831 5830 5827 5821 5820 5818 5814 5815 5811 5806 5803 5799 5794 5789 5785 5780 5774 5767 5761 5755 5748 5740 5733 5725 5717 5708 5699 5693 5686 5676 5667 5659 5651 5642 5636 5630 5625 5620 5617 5615
5835 5833 5832 5830 5828 5826 5820 5819 5819 5813 5812 5810 5806 5802 5799 5795 5788 5783 5778 5772 5766 5761 5754 5747 5739 5733 5725 5718 5709 5701 5694 5688 5681 5673 5665 5657 5648 5640 5633 5627 5621 5616 5612 5609
5831 5829 5828 5826 5825 5822 5819 5816 5812 5813 5811 5808 5805 5800 5795 5789 5784 5779 5774 5766 5761 5754 5748 5741 5733 5726 5719 5711 5703 5696 5690 5685 5677 5671 5663 5655 5647 5639 5631 5624 5619 5614 5610 5607
5827 5826 5825 5823 5822 5820 5818 5814 5812 5810 5808 5803 5798 5792 5786 5782 5777 5773 5768 5762 5755 5749 5743 5737 5729 5722 5715 5706 5698 5692 5687 5681 5675 5670 5663 5655 5648 5640 5632 5624 5617 5611 5607 5605
5825 5825 5823 5822 5819 5817 5816 5814 5810 5805 5803 5798 5793 5788 5781 5773 5770 5766 5762 5755 5750 5743 5738 5732 5726 5719 5711 5703 5697 5691 5685 5680 5676 5671 5665 5658 5652 5643 5634 5626 5619 5614 5609 5606
5823 5822 5821 5818 5816 5814 5811 5808 5804 5800 5797 5791 5787 5783 5779 5773 5765 5760 5754 5750 5744 5739 5733 5728 5722 5715 5708 5703 5697 5691 5685 5682 5678 5674 5669 5663 5656 5649 5641 5633 5626 5621 5617 5613
5822 5820 5818 5816 5814 5811 5807 5805 5801 5797 5795 5786 5782 5777 5773 5767 5762 5756 5750 5744 5739 5734 5729 5725 5719 5712 5707 5702 5697 5691 5688 5684 5681 5678 5674 5668 5662 5657 5652 5645 5639 5634 5630 5626
5820 5818 5815 5814 5811 5808 5804 5799 5796 5792 5786 5781 5776 5771 5766 5761 5756 5751 5745 5740 5735 5730 5726 5722 5716 5711 5707 5701 5697 5693 5690 5688 5685 5682 5679 5673 5669 5666 5662 5658 5653 5648 5646 5643
5819 5816 5814 5812 5807 5803 5801 5797 5791 5787 5782 5777 5772 5767 5762 5757 5751 5746 5741 5736 5731 5727 5724 5720 5715 5711 5707 5702 5698 5696 5694 5692 5690 5687 5684 5680 5677 5674 5671 5668 5664 5661 5658 5655
5816 5813 5810 5808 5804 5799 5796 5793 5789 5783 5779 5772 5768 5763 5758 5753 5747 5743 5736 5732 5728 5725 5721 5718 5715 5711 5707 5703 5700 5699 5697 5695 5694 5692 5691 5688 5685 5682 5680 5677 5675 5672 5670 5668
5813 5810 5807 5804 5800 5797 5793 5788 5785 5780 5775 5770 5764 5760 5755 5749 5744 5739 5734 5730 5727 5723 5720 5717 5714 5711 5708 5705 5703 5701 5699 5699 5698 5697 5696 5694 5692 5690 5689 5687 5685 5683 5681 5679
5811 5807 5804 5802 5798 5794 5790 5785 5781 5777 5772 5767 5762 5757 5751 5747 5741 5736 5732 5728 5725 5721 5719 5716 5713 5711 5709 5708 5706 5704 5703 5702 5702 5702 5702 5701 5699 5698 5697 5695 5693 5692 5690 5689